TRA6Q EHAM-LGSR

Flight info

Callsign TRA6Q
Flight time 3h 3m
Altitude 37000
Route EDUPO Z739 MISGO DCT DOJOH DCT DODEN DCT NEGIX DCT DINKU M867 XERUM DCT BAVAX DCT RADIZ DCT PINDO DCT PIKOS UL607 NETIS M601 PEXAN PEXAN1C
Aircraft B738/M-SDE2E3FGHIJ1RWXYZ/LB1

Departure

Time 2026-05-08 09:18
Airport Amsterdam Airport Schiphol (EHAM)

Arrival

Time 2026-05-08 12:22
Airport Santorini International Airport (LGSR)
Time Latitude Longitude Altitude Speed Heading
2026-05-08 08:52 52.30999 4.77314 -2 ft 0 kts 182°
2026-05-08 09:07 52.31001 4.77314 -2 ft 2 kts 182°
2026-05-08 09:07 52.31026 4.77314 -2 ft 4 kts 173°
2026-05-08 09:07 52.31052 4.77310 -2 ft 4 kts 188°
2026-05-08 09:07 52.31067 4.77322 -2 ft 3 kts 257°
2026-05-08 09:08 52.31069 4.77358 -2 ft 1 kts 264°
2026-05-08 09:08 52.31069 4.77359 -2 ft 0 kts 264°
2026-05-08 09:09 52.31070 4.77343 -2 ft 4 kts 275°
2026-05-08 09:10 52.31075 4.77241 -2 ft 13 kts 274°
2026-05-08 09:10 52.31080 4.77080 -2 ft 14 kts 273°
2026-05-08 09:10 52.31116 4.76946 -2 ft 14 kts 340°
2026-05-08 09:10 52.31200 4.76994 -2 ft 13 kts 33°
2026-05-08 09:11 52.31274 4.77075 -2 ft 13 kts 34°
2026-05-08 09:11 52.31347 4.77154 -2 ft 12 kts 33°
2026-05-08 09:11 52.31427 4.77193 -2 ft 12 kts
2026-05-08 09:11 52.31509 4.77200 -2 ft 12 kts
2026-05-08 09:12 52.31568 4.77133 -2 ft 12 kts 279°
2026-05-08 09:12 52.31564 4.76964 -2 ft 18 kts 267°
2026-05-08 09:12 52.31555 4.76718 -2 ft 25 kts 266°
2026-05-08 09:12 52.31546 4.76427 -2 ft 25 kts 266°
2026-05-08 09:13 52.31535 4.76149 -2 ft 24 kts 266°
2026-05-08 09:13 52.31526 4.75888 -2 ft 23 kts 266°
2026-05-08 09:13 52.31518 4.75635 -2 ft 22 kts 267°
2026-05-08 09:13 52.31510 4.75389 -2 ft 21 kts 267°
2026-05-08 09:14 52.31502 4.75150 -2 ft 21 kts 266°
2026-05-08 09:14 52.31494 4.74918 -2 ft 20 kts 266°
2026-05-08 09:14 52.31486 4.74693 -2 ft 19 kts 266°
2026-05-08 09:14 52.31479 4.74476 -2 ft 19 kts 266°
2026-05-08 09:15 52.31471 4.74266 -2 ft 18 kts 260°
2026-05-08 09:15 52.31386 4.74138 -2 ft 18 kts 187°
2026-05-08 09:15 52.31266 4.74127 -2 ft 17 kts 184°
2026-05-08 09:15 52.31150 4.74116 -2 ft 16 kts 182°
2026-05-08 09:16 52.31032 4.74106 -2 ft 19 kts 183°
2026-05-08 09:16 52.30881 4.74092 -2 ft 23 kts 183°
2026-05-08 09:16 52.30721 4.74082 -2 ft 23 kts 183°
2026-05-08 09:16 52.30599 4.74005 -2 ft 20 kts 258°
2026-05-08 09:17 52.30686 4.73862 -3 ft 19 kts 333°
2026-05-08 09:17 52.30808 4.73793 -1 ft 19 kts
2026-05-08 09:17 52.31054 4.73816 -1 ft 66 kts
2026-05-08 09:17 52.31750 4.73880 -3 ft 131 kts
2026-05-08 09:18 52.32819 4.73981 205 ft 166 kts
2026-05-08 09:18 52.33978 4.74113 928 ft 168 kts 13°
2026-05-08 09:18 52.35100 4.74878 1442 ft 189 kts 29°
2026-05-08 09:18 52.36362 4.75898 1772 ft 215 kts 27°
2026-05-08 09:19 52.37760 4.77051 2113 ft 235 kts 30°
2026-05-08 09:19 52.39052 4.78797 2623 ft 248 kts 51°
2026-05-08 09:19 52.40195 4.80968 3484 ft 254 kts 49°
2026-05-08 09:19 52.41421 4.83097 4376 ft 257 kts 49°
2026-05-08 09:20 52.42324 4.85589 5282 ft 257 kts 76°
2026-05-08 09:20 52.42393 4.88489 6090 ft 259 kts 103°
2026-05-08 09:20 52.41666 4.91199 6870 ft 263 kts 124°
2026-05-08 09:20 52.40567 4.93611 7681 ft 266 kts 128°
2026-05-08 09:21 52.39414 4.96002 8498 ft 269 kts 128°
2026-05-08 09:21 52.38239 4.98405 9253 ft 273 kts 128°
2026-05-08 09:22 52.30844 5.13640 13473 ft 297 kts 129°
2026-05-08 09:23 52.29576 5.16264 14148 ft 300 kts 129°
2026-05-08 09:23 52.28274 5.18958 14823 ft 304 kts 129°
2026-05-08 09:23 52.26957 5.21684 15471 ft 308 kts 129°
2026-05-08 09:23 52.25621 5.24445 16116 ft 311 kts 129°
2026-05-08 09:24 52.24271 5.27234 16744 ft 315 kts 129°
2026-05-08 09:24 52.22907 5.30050 17359 ft 318 kts 129°
2026-05-08 09:24 52.21524 5.32904 17960 ft 322 kts 130°
2026-05-08 09:24 52.20123 5.35788 18447 ft 330 kts 130°
2026-05-08 09:25 52.18651 5.38811 18568 ft 350 kts 130°
2026-05-08 09:25 52.17100 5.41993 18722 ft 367 kts 130°
2026-05-08 09:25 52.15489 5.45299 19099 ft 376 kts 130°
2026-05-08 09:25 52.13854 5.48652 19664 ft 379 kts 130°
2026-05-08 09:26 52.12212 5.52016 20274 ft 381 kts 130°
2026-05-08 09:26 52.10558 5.55401 20838 ft 384 kts 130°
2026-05-08 09:26 52.08887 5.58813 21356 ft 387 kts 130°
2026-05-08 09:26 52.07201 5.62249 21866 ft 391 kts 130°
2026-05-08 09:27 52.05501 5.65711 22368 ft 393 kts 130°
2026-05-08 09:27 52.03785 5.69198 22845 ft 397 kts 130°
2026-05-08 09:27 52.02056 5.72709 23320 ft 399 kts 130°
2026-05-08 09:27 52.00316 5.76239 23780 ft 402 kts 130°
2026-05-08 09:28 51.98562 5.79793 24217 ft 405 kts 130°
2026-05-08 09:28 51.96795 5.83367 24662 ft 408 kts 130°
2026-05-08 09:28 51.95014 5.86963 25104 ft 410 kts 130°
2026-05-08 09:28 51.93224 5.90573 25519 ft 413 kts 130°
2026-05-08 09:29 51.91419 5.94210 25927 ft 415 kts 130°
2026-05-08 09:29 51.89603 5.97864 26337 ft 417 kts 131°
2026-05-08 09:29 51.87776 6.01533 26717 ft 420 kts 131°
2026-05-08 09:29 51.85938 6.05219 27087 ft 422 kts 131°
2026-05-08 09:30 51.84056 6.08881 27451 ft 424 kts 133°
2026-05-08 09:30 51.82090 6.12447 27807 ft 426 kts 134°
2026-05-08 09:30 51.80097 6.16012 28177 ft 428 kts 134°
2026-05-08 09:30 51.78109 6.19603 28520 ft 430 kts 134°
2026-05-08 09:31 51.76120 6.23224 28821 ft 432 kts 134°
2026-05-08 09:31 51.74125 6.26870 29115 ft 435 kts 134°
2026-05-08 09:31 51.72120 6.30536 29426 ft 437 kts 134°
2026-05-08 09:31 51.70104 6.34215 29734 ft 438 kts 134°
2026-05-08 09:32 51.68081 6.37901 30037 ft 440 kts 134°
2026-05-08 09:32 51.66049 6.41599 30290 ft 442 kts 134°
2026-05-08 09:32 51.64030 6.45260 30535 ft 444 kts 134°
2026-05-08 09:32 51.61973 6.48986 30798 ft 446 kts 134°
2026-05-08 09:33 51.59907 6.52723 31039 ft 448 kts 134°
2026-05-08 09:33 51.57830 6.56475 31294 ft 450 kts 134°
2026-05-08 09:33 51.55747 6.60235 31547 ft 451 kts 134°
2026-05-08 09:33 51.53655 6.64005 31769 ft 453 kts 134°
2026-05-08 09:34 51.51552 6.67791 31965 ft 455 kts 134°
2026-05-08 09:34 51.49439 6.71589 32175 ft 457 kts 134°
2026-05-08 09:34 51.47319 6.75395 32407 ft 458 kts 134°
2026-05-08 09:34 51.45197 6.79200 32685 ft 457 kts 134°
2026-05-08 09:35 51.43081 6.82989 32983 ft 456 kts 134°
2026-05-08 09:35 51.40962 6.86773 33269 ft 456 kts 135°
2026-05-08 09:35 51.38793 6.90459 33526 ft 454 kts 137°
2026-05-08 09:35 51.36543 6.94009 33765 ft 454 kts 139°
2026-05-08 09:36 51.34259 6.97500 34024 ft 454 kts 139°
2026-05-08 09:36 51.31972 7.00964 34290 ft 453 kts 139°
2026-05-08 09:36 51.29690 7.04431 34531 ft 453 kts 139°
2026-05-08 09:36 51.27409 7.07914 34737 ft 454 kts 139°
2026-05-08 09:37 51.25129 7.11413 34949 ft 454 kts 139°
2026-05-08 09:37 51.22858 7.14909 35188 ft 454 kts 139°
2026-05-08 09:37 51.20587 7.18404 35408 ft 454 kts 139°
2026-05-08 09:37 51.18315 7.21898 35628 ft 454 kts 139°
2026-05-08 09:38 51.16040 7.25390 35813 ft 454 kts 139°
2026-05-08 09:38 51.13762 7.28880 36001 ft 454 kts 139°
2026-05-08 09:38 51.11485 7.32365 36186 ft 454 kts 139°
2026-05-08 09:38 51.09205 7.35850 36382 ft 454 kts 139°
2026-05-08 09:39 51.06924 7.39332 36539 ft 455 kts 139°
2026-05-08 09:39 51.04642 7.42809 36795 ft 453 kts 139°
2026-05-08 09:39 51.02384 7.46249 37138 ft 448 kts 139°
2026-05-08 09:40 50.97839 7.53148 37135 ft 455 kts 139°
2026-05-08 09:40 50.93252 7.60093 37131 ft 455 kts 139°
2026-05-08 09:41 50.88670 7.67014 37132 ft 455 kts 139°
2026-05-08 09:41 50.84086 7.73916 37131 ft 455 kts 139°
2026-05-08 09:42 50.79523 7.80728 37127 ft 454 kts 140°
2026-05-08 09:42 50.74921 7.87553 37133 ft 453 kts 140°
2026-05-08 09:43 50.70317 7.94371 37133 ft 454 kts 140°
2026-05-08 09:43 50.65709 8.01185 37128 ft 454 kts 140°
2026-05-08 09:44 50.61095 8.07982 37130 ft 454 kts 140°
2026-05-08 09:44 50.56898 8.15441 37136 ft 457 kts 130°
2026-05-08 09:45 50.53660 8.22013 37124 ft 457 kts 130°
2026-05-08 09:45 50.49738 8.29873 37127 ft 457 kts 131°
2026-05-08 09:46 50.45772 8.37660 37134 ft 457 kts 131°
2026-05-08 09:46 50.41791 8.45428 37129 ft 457 kts 131°
2026-05-08 09:47 50.37800 8.53185 37131 ft 457 kts 133°
2026-05-08 09:47 50.33562 8.60572 37127 ft 456 kts 136°
2026-05-08 09:48 50.29187 8.67756 37129 ft 456 kts 136°
2026-05-08 09:48 50.24819 8.74941 37128 ft 456 kts 136°
2026-05-08 09:49 50.20469 8.82155 37131 ft 456 kts 136°
2026-05-08 09:49 50.16123 8.89377 37125 ft 457 kts 136°
2026-05-08 09:50 50.11767 8.96586 37131 ft 457 kts 136°
2026-05-08 09:50 50.07408 9.03781 37128 ft 457 kts 136°
2026-05-08 09:51 50.03039 9.10967 37136 ft 457 kts 136°
2026-05-08 09:51 49.98661 9.18153 37127 ft 458 kts 136°
2026-05-08 09:52 49.94274 9.25334 37128 ft 459 kts 136°
2026-05-08 09:52 49.89878 9.32510 37131 ft 459 kts 136°
2026-05-08 09:53 49.85478 9.39669 37129 ft 459 kts 137°
2026-05-08 09:53 49.81101 9.46775 37125 ft 459 kts 137°
2026-05-08 09:54 49.76688 9.53916 37133 ft 459 kts 137°
2026-05-08 09:54 49.72269 9.61048 37125 ft 459 kts 137°
2026-05-08 09:55 49.67849 9.68158 37129 ft 459 kts 137°
2026-05-08 09:55 49.63427 9.75255 37127 ft 458 kts 137°
2026-05-08 09:56 49.59006 9.82328 37129 ft 458 kts 137°
2026-05-08 09:56 49.54579 9.89392 37127 ft 458 kts 137°
2026-05-08 09:57 49.47934 9.99963 37131 ft 458 kts 137°
2026-05-08 09:57 49.43500 10.06992 37125 ft 457 kts 137°
2026-05-08 09:58 49.39066 10.13999 37131 ft 457 kts 137°
2026-05-08 09:58 49.34631 10.20990 37125 ft 457 kts 137°
2026-05-08 09:59 49.30196 10.27964 37130 ft 457 kts 138°
2026-05-08 09:59 49.25757 10.34924 37130 ft 457 kts 138°
2026-05-08 10:00 49.20886 10.40999 37133 ft 449 kts 153°
2026-05-08 10:00 49.15497 10.45808 37139 ft 449 kts 154°
2026-05-08 10:01 49.10097 10.50620 37139 ft 450 kts 153°
2026-05-08 10:01 49.04705 10.55493 37129 ft 451 kts 153°
2026-05-08 10:02 48.99318 10.60380 37129 ft 451 kts 153°
2026-05-08 10:02 48.93958 10.65225 37133 ft 451 kts 153°
2026-05-08 10:03 48.88562 10.70092 37125 ft 451 kts 153°
2026-05-08 10:03 48.83165 10.74950 37119 ft 451 kts 152°
2026-05-08 10:04 48.78343 10.81125 37124 ft 459 kts 136°
2026-05-08 10:04 48.74110 10.88361 37113 ft 459 kts 135°
2026-05-08 10:05 48.69880 10.95593 37107 ft 458 kts 136°
2026-05-08 10:05 48.65624 11.02755 37099 ft 458 kts 136°
2026-05-08 10:06 48.61351 11.09879 37098 ft 457 kts 136°
2026-05-08 10:06 48.57072 11.16993 37098 ft 457 kts 136°
2026-05-08 10:07 48.52791 11.24089 37099 ft 457 kts 136°
2026-05-08 10:07 48.48507 11.31171 37101 ft 457 kts 136°
2026-05-08 10:08 48.44217 11.38244 37106 ft 457 kts 136°
2026-05-08 10:08 48.39922 11.45309 37095 ft 458 kts 137°
2026-05-08 10:09 48.35615 11.52373 37096 ft 458 kts 137°
2026-05-08 10:09 48.31303 11.59433 37104 ft 459 kts 137°
2026-05-08 10:10 48.26991 11.66469 37098 ft 459 kts 137°
2026-05-08 10:10 48.22457 11.73179 37103 ft 456 kts 142°
2026-05-08 10:11 48.17769 11.79478 37103 ft 456 kts 143°
2026-05-08 10:11 48.13049 11.85817 37099 ft 456 kts 142°
2026-05-08 10:12 48.08363 11.92184 37095 ft 455 kts 142°
2026-05-08 10:12 48.03687 11.98561 37104 ft 455 kts 142°
2026-05-08 10:13 47.99011 12.04926 37092 ft 455 kts 142°
2026-05-08 10:13 47.94326 12.11282 37095 ft 455 kts 142°
2026-05-08 10:14 47.89640 12.17622 37085 ft 455 kts 142°
2026-05-08 10:14 47.84947 12.23954 37083 ft 455 kts 143°
2026-05-08 10:15 47.80251 12.30275 37081 ft 455 kts 142°
2026-05-08 10:15 47.75557 12.36578 37103 ft 455 kts 143°
2026-05-08 10:16 47.70853 12.42882 37080 ft 455 kts 143°
2026-05-08 10:16 47.66148 12.49167 37099 ft 455 kts 143°
2026-05-08 10:17 47.61446 12.55450 37077 ft 456 kts 142°
2026-05-08 10:17 47.56809 12.61868 37075 ft 456 kts 141°
2026-05-08 10:18 47.52197 12.68327 37075 ft 456 kts 141°
2026-05-08 10:18 47.47585 12.74752 37074 ft 456 kts 141°
2026-05-08 10:19 47.42958 12.81160 37077 ft 456 kts 142°
2026-05-08 10:20 47.36008 12.90740 37083 ft 456 kts 142°
2026-05-08 10:20 47.31402 12.97069 37081 ft 456 kts 142°
2026-05-08 10:21 47.26767 13.03426 37093 ft 455 kts 142°
2026-05-08 10:21 47.22130 13.09766 37084 ft 454 kts 142°
2026-05-08 10:22 47.17493 13.16083 37106 ft 455 kts 142°
2026-05-08 10:22 47.12842 13.22408 37091 ft 456 kts 142°
2026-05-08 10:23 47.08185 13.28731 37097 ft 456 kts 142°
2026-05-08 10:23 47.03521 13.35045 37075 ft 457 kts 142°
2026-05-08 10:24 46.98861 13.41340 37099 ft 455 kts 142°
2026-05-08 10:24 46.94199 13.47620 37094 ft 455 kts 142°
2026-05-08 10:25 46.89548 13.53870 37095 ft 454 kts 142°
2026-05-08 10:25 46.84891 13.60116 37081 ft 455 kts 142°
2026-05-08 10:26 46.80224 13.66354 37081 ft 456 kts 142°
2026-05-08 10:26 46.75547 13.72589 37085 ft 456 kts 143°
2026-05-08 10:27 46.70903 13.78770 37096 ft 455 kts 143°
2026-05-08 10:27 46.66234 13.84969 37099 ft 454 kts 143°
2026-05-08 10:28 46.61539 13.91186 37109 ft 453 kts 143°
2026-05-08 10:28 46.56872 13.97349 37095 ft 453 kts 143°
2026-05-08 10:29 46.52201 14.03501 37097 ft 454 kts 143°
2026-05-08 10:29 46.47527 14.09646 37096 ft 453 kts 143°
2026-05-08 10:30 46.42873 14.15751 37101 ft 455 kts 143°
2026-05-08 10:30 46.38161 14.21907 37087 ft 457 kts 143°
2026-05-08 10:31 46.33443 14.28065 37100 ft 457 kts 143°
2026-05-08 10:31 46.28723 14.34210 37101 ft 456 kts 143°
2026-05-08 10:32 46.24005 14.40340 37098 ft 456 kts 143°
2026-05-08 10:32 46.19292 14.46444 37105 ft 455 kts 143°
2026-05-08 10:33 46.14585 14.52528 37102 ft 453 kts 143°
2026-05-08 10:33 46.10684 14.57559 37095 ft 452 kts 143°
2026-05-08 10:34 46.05997 14.63591 37107 ft 451 kts 143°
2026-05-08 10:34 46.01310 14.69606 37107 ft 452 kts 143°
2026-05-08 10:35 45.96614 14.75618 37110 ft 452 kts 143°
2026-05-08 10:35 45.91914 14.81621 37099 ft 452 kts 143°
2026-05-08 10:36 45.87206 14.87622 37097 ft 453 kts 143°
2026-05-08 10:36 45.82493 14.93615 37100 ft 453 kts 143°
2026-05-08 10:37 45.77777 14.99599 37084 ft 453 kts 143°
2026-05-08 10:37 45.73064 15.05565 37072 ft 452 kts 144°
2026-05-08 10:38 45.68362 15.11506 37074 ft 451 kts 144°
2026-05-08 10:38 45.63657 15.17434 37074 ft 450 kts 144°
2026-05-08 10:39 45.58956 15.23340 37061 ft 450 kts 144°
2026-05-08 10:39 45.54257 15.29231 37066 ft 450 kts 144°
2026-05-08 10:40 45.49552 15.35115 37063 ft 450 kts 144°
2026-05-08 10:40 45.44870 15.40956 37070 ft 451 kts 144°
2026-05-08 10:41 45.40145 15.46840 37069 ft 451 kts 144°
2026-05-08 10:41 45.35416 15.52714 37062 ft 451 kts 144°
2026-05-08 10:42 45.30686 15.58578 37069 ft 451 kts 144°
2026-05-08 10:42 45.25955 15.64430 37075 ft 451 kts 144°
2026-05-08 10:43 45.21224 15.70267 37070 ft 450 kts 144°
2026-05-08 10:43 45.16490 15.76090 37079 ft 450 kts 144°
2026-05-08 10:44 45.11757 15.81904 37073 ft 450 kts 144°
2026-05-08 10:44 45.07021 15.87710 37073 ft 450 kts 144°
2026-05-08 10:45 45.02291 15.93495 37071 ft 449 kts 144°
2026-05-08 10:45 44.97565 15.99260 37077 ft 449 kts 144°
2026-05-08 10:46 44.92837 16.05011 37073 ft 448 kts 144°
2026-05-08 10:46 44.88114 16.10748 37067 ft 448 kts 144°
2026-05-08 10:47 44.83397 16.16463 37065 ft 447 kts 144°
2026-05-08 10:47 44.78681 16.22163 37065 ft 446 kts 144°
2026-05-08 10:48 44.73970 16.27847 37064 ft 446 kts 144°
2026-05-08 10:48 44.69261 16.33516 37069 ft 445 kts 144°
2026-05-08 10:49 44.64554 16.39166 37063 ft 445 kts 144°
2026-05-08 10:49 44.59883 16.44764 37072 ft 444 kts 144°
2026-05-08 10:50 44.55170 16.50395 37058 ft 445 kts 144°
2026-05-08 10:50 44.50459 16.56015 37049 ft 444 kts 144°
2026-05-08 10:51 44.45763 16.61611 37065 ft 443 kts 144°
2026-05-08 10:51 44.41059 16.67194 37052 ft 443 kts 144°
2026-05-08 10:52 44.36359 16.72761 37064 ft 443 kts 144°
2026-05-08 10:52 44.31654 16.78327 37054 ft 443 kts 145°
2026-05-08 10:53 44.26944 16.83880 37057 ft 443 kts 144°
2026-05-08 10:53 44.22233 16.89429 37047 ft 443 kts 145°
2026-05-08 10:54 44.17524 16.94964 37059 ft 443 kts 145°
2026-05-08 10:54 44.12799 17.00504 37054 ft 444 kts 145°
2026-05-08 10:55 44.08058 17.06046 37050 ft 445 kts 145°
2026-05-08 10:55 44.03315 17.11581 37029 ft 445 kts 145°
2026-05-08 10:56 43.98573 17.17104 37039 ft 445 kts 145°
2026-05-08 10:56 43.93836 17.22608 37037 ft 443 kts 144°
2026-05-08 10:57 43.89103 17.28098 37040 ft 443 kts 144°
2026-05-08 10:57 43.82001 17.36313 37034 ft 443 kts 145°
2026-05-08 10:58 43.77298 17.41736 37051 ft 443 kts 145°
2026-05-08 10:58 43.72530 17.47225 37046 ft 443 kts 145°
2026-05-08 10:59 43.67832 17.52624 37043 ft 442 kts 145°
2026-05-08 10:59 43.63107 17.58039 37046 ft 441 kts 145°
2026-05-08 11:00 43.58382 17.63442 37031 ft 441 kts 145°
2026-05-08 11:00 43.53657 17.68838 37045 ft 441 kts 145°
2026-05-08 11:01 43.48927 17.74224 37040 ft 441 kts 145°
2026-05-08 11:01 43.44195 17.79602 37033 ft 441 kts 145°
2026-05-08 11:02 43.37095 17.87645 37023 ft 441 kts 145°
2026-05-08 11:03 43.32358 17.93024 37022 ft 443 kts 145°
2026-05-08 11:03 43.27596 17.98393 37023 ft 443 kts 145°
2026-05-08 11:04 43.22824 18.03754 37024 ft 444 kts 145°
2026-05-08 11:04 43.18049 18.09114 37023 ft 444 kts 145°
2026-05-08 11:05 43.13271 18.14471 37030 ft 444 kts 145°
2026-05-08 11:05 43.08492 18.19819 37041 ft 444 kts 145°
2026-05-08 11:06 43.03738 18.25128 37032 ft 444 kts 145°
2026-05-08 11:06 42.98926 18.30484 37038 ft 443 kts 145°
2026-05-08 11:07 42.94156 18.35792 37047 ft 442 kts 145°
2026-05-08 11:07 42.89385 18.41088 37034 ft 442 kts 145°
2026-05-08 11:08 42.84609 18.46377 37043 ft 443 kts 145°
2026-05-08 11:08 42.79861 18.51625 37035 ft 442 kts 145°
2026-05-08 11:09 42.75077 18.56900 37036 ft 443 kts 145°
2026-05-08 11:09 42.70285 18.62173 37033 ft 443 kts 145°
2026-05-08 11:10 42.65486 18.67445 37041 ft 443 kts 145°
2026-05-08 11:10 42.60681 18.72710 37017 ft 444 kts 145°
2026-05-08 11:11 42.55878 18.77963 37022 ft 443 kts 145°
2026-05-08 11:11 42.51072 18.83210 37020 ft 444 kts 145°
2026-05-08 11:12 42.46265 18.88449 37033 ft 443 kts 145°
2026-05-08 11:12 42.41457 18.93676 37026 ft 443 kts 145°
2026-05-08 11:13 42.36644 18.98899 37026 ft 443 kts 146°
2026-05-08 11:13 42.31825 19.04115 37018 ft 444 kts 146°
2026-05-08 11:14 42.27008 19.09319 37015 ft 443 kts 146°
2026-05-08 11:14 42.22193 19.14513 37020 ft 442 kts 146°
2026-05-08 11:15 42.17387 19.19691 37018 ft 442 kts 146°
2026-05-08 11:15 42.12581 19.24852 37014 ft 441 kts 146°
2026-05-08 11:16 42.07778 19.29999 37026 ft 441 kts 146°
2026-05-08 11:16 42.02974 19.35138 37023 ft 442 kts 146°
2026-05-08 11:17 41.98156 19.40279 37019 ft 442 kts 146°
2026-05-08 11:17 41.93329 19.45422 37021 ft 443 kts 146°
2026-05-08 11:18 41.88483 19.50575 37012 ft 445 kts 146°
2026-05-08 11:18 41.83624 19.55732 37012 ft 446 kts 146°
2026-05-08 11:19 41.78747 19.60898 37006 ft 447 kts 146°
2026-05-08 11:19 41.73866 19.66061 37010 ft 447 kts 146°
2026-05-08 11:20 41.69812 19.70342 37008 ft 447 kts 146°
2026-05-08 11:20 41.64926 19.75486 37003 ft 447 kts 147°
2026-05-08 11:21 41.60034 19.80627 37001 ft 447 kts 147°
2026-05-08 11:21 41.55140 19.85761 37013 ft 448 kts 147°
2026-05-08 11:22 41.50241 19.90890 37007 ft 448 kts 147°
2026-05-08 11:22 41.45343 19.96010 36995 ft 447 kts 147°
2026-05-08 11:23 41.40451 20.01113 36995 ft 446 kts 147°
2026-05-08 11:23 41.35605 20.06154 36997 ft 444 kts 147°
2026-05-08 11:24 41.30740 20.11209 37011 ft 444 kts 147°
2026-05-08 11:24 41.25876 20.16252 37007 ft 443 kts 147°
2026-05-08 11:25 41.21014 20.21284 37021 ft 443 kts 148°
2026-05-08 11:25 41.16146 20.26310 37036 ft 444 kts 148°
2026-05-08 11:26 41.11266 20.31339 37053 ft 445 kts 148°
2026-05-08 11:26 41.06369 20.36379 37062 ft 446 kts 148°
2026-05-08 11:27 41.01450 20.41431 37065 ft 448 kts 148°
2026-05-08 11:27 40.96518 20.46485 37073 ft 449 kts 148°
2026-05-08 11:28 40.91578 20.51536 37094 ft 449 kts 148°
2026-05-08 11:28 40.86624 20.56592 37080 ft 450 kts 148°
2026-05-08 11:29 40.81666 20.61646 37093 ft 451 kts 148°
2026-05-08 11:29 40.76719 20.66676 37084 ft 452 kts 149°
2026-05-08 11:30 40.71699 20.71771 37073 ft 453 kts 149°
2026-05-08 11:30 40.66709 20.76827 37085 ft 453 kts 149°
2026-05-08 11:31 40.61715 20.81878 37092 ft 453 kts 149°
2026-05-08 11:31 40.56753 20.86886 37080 ft 452 kts 149°
2026-05-08 11:32 40.51770 20.91908 37109 ft 451 kts 149°
2026-05-08 11:32 40.46818 20.96967 37112 ft 452 kts 147°
2026-05-08 11:33 40.42062 21.02408 37108 ft 454 kts 145°
2026-05-08 11:33 40.37362 21.07931 37117 ft 454 kts 145°
2026-05-08 11:34 40.32638 21.13416 37106 ft 453 kts 145°
2026-05-08 11:34 40.27902 21.18864 37112 ft 453 kts 146°
2026-05-08 11:35 40.23157 21.24298 37119 ft 454 kts 146°
2026-05-08 11:35 40.18400 21.29735 37117 ft 455 kts 146°
2026-05-08 11:36 40.13627 21.35184 37126 ft 456 kts 146°
2026-05-08 11:36 40.08843 21.40637 37126 ft 457 kts 146°
2026-05-08 11:37 40.04042 21.46098 37120 ft 459 kts 146°
2026-05-08 11:37 39.99223 21.51572 37113 ft 460 kts 146°
2026-05-08 11:38 39.94394 21.57040 37113 ft 460 kts 147°
2026-05-08 11:38 39.89557 21.62503 37119 ft 461 kts 147°
2026-05-08 11:39 39.84706 21.67968 37111 ft 461 kts 147°
2026-05-08 11:39 39.79883 21.73395 37117 ft 462 kts 147°
2026-05-08 11:40 39.75017 21.78862 37106 ft 463 kts 147°
2026-05-08 11:40 39.70114 21.84356 37105 ft 462 kts 147°
2026-05-08 11:41 39.65282 21.89768 37088 ft 461 kts 147°
2026-05-08 11:41 39.60431 21.95191 37100 ft 460 kts 147°
2026-05-08 11:42 39.55588 22.00590 37100 ft 459 kts 147°
2026-05-08 11:42 39.50747 22.05974 37081 ft 459 kts 147°
2026-05-08 11:43 39.45906 22.11354 37100 ft 459 kts 147°
2026-05-08 11:43 39.41060 22.16725 37079 ft 459 kts 147°
2026-05-08 11:44 39.36207 22.22091 37085 ft 460 kts 147°
2026-05-08 11:44 39.31332 22.27473 37091 ft 462 kts 147°
2026-05-08 11:45 39.26431 22.32873 37096 ft 464 kts 147°
2026-05-08 11:45 39.21494 22.38298 37098 ft 466 kts 147°
2026-05-08 11:46 39.16543 22.43703 37076 ft 467 kts 147°
2026-05-08 11:46 39.11550 22.49124 37078 ft 471 kts 147°
2026-05-08 11:47 39.06559 22.54622 37069 ft 473 kts 147°
2026-05-08 11:47 39.01548 22.60126 37070 ft 475 kts 147°
2026-05-08 11:48 38.96512 22.65627 37080 ft 476 kts 147°
2026-05-08 11:48 38.91460 22.71129 37081 ft 477 kts 147°
2026-05-08 11:49 38.86389 22.76643 37074 ft 477 kts 147°
2026-05-08 11:49 38.81320 22.82126 37064 ft 476 kts 147°
2026-05-08 11:50 38.76265 22.87587 37070 ft 474 kts 148°
2026-05-08 11:50 38.71226 22.93026 37077 ft 473 kts 147°
2026-05-08 11:51 38.66194 22.98459 37058 ft 474 kts 146°
2026-05-08 11:51 38.61209 23.03918 37096 ft 470 kts 148°
2026-05-08 11:52 38.56166 23.09262 37099 ft 472 kts 148°
2026-05-08 11:52 38.51098 23.14639 37094 ft 475 kts 148°
2026-05-08 11:53 38.46009 23.20071 37082 ft 478 kts 148°
2026-05-08 11:53 38.40864 23.25496 37080 ft 482 kts 148°
2026-05-08 11:54 38.35756 23.30979 37100 ft 484 kts 147°
2026-05-08 11:54 38.30590 23.36500 37100 ft 485 kts 147°
2026-05-08 11:55 38.25398 23.42008 37098 ft 486 kts 148°
2026-05-08 11:55 38.20197 23.47517 37102 ft 487 kts 148°
2026-05-08 11:56 38.14984 23.53025 37106 ft 487 kts 148°
2026-05-08 11:56 38.09781 23.58505 36749 ft 483 kts 148°
2026-05-08 11:56 38.07207 23.61214 36293 ft 478 kts 148°
2026-05-08 11:57 38.04647 23.63904 35744 ft 478 kts 148°
2026-05-08 11:57 38.02089 23.66589 35154 ft 478 kts 149°
2026-05-08 11:57 37.99526 23.69276 34562 ft 478 kts 149°
2026-05-08 11:57 37.96962 23.71963 33964 ft 479 kts 149°
2026-05-08 11:58 37.94389 23.74657 33331 ft 480 kts 149°
2026-05-08 11:58 37.91814 23.77350 32688 ft 481 kts 148°
2026-05-08 11:58 37.89242 23.80072 32017 ft 484 kts 145°
2026-05-08 11:59 37.84691 23.86453 30936 ft 488 kts 135°
2026-05-08 11:59 37.82544 23.89758 30438 ft 484 kts 134°
2026-05-08 11:59 37.80411 23.93039 29958 ft 481 kts 134°
2026-05-08 11:59 37.78283 23.96281 29461 ft 477 kts 134°
2026-05-08 12:00 37.76160 23.99480 28962 ft 474 kts 134°
2026-05-08 12:00 37.74040 24.02653 28466 ft 470 kts 134°
2026-05-08 12:00 37.71934 24.05794 27967 ft 467 kts 134°
2026-05-08 12:00 37.69843 24.08908 27465 ft 463 kts 135°
2026-05-08 12:01 37.67767 24.11996 26993 ft 460 kts 135°
2026-05-08 12:01 37.65705 24.15060 26501 ft 457 kts 135°
2026-05-08 12:01 37.63656 24.18103 26018 ft 453 kts 135°
2026-05-08 12:01 37.61620 24.21126 25530 ft 450 kts 135°
2026-05-08 12:02 37.59597 24.24127 25047 ft 447 kts 135°
2026-05-08 12:02 37.57587 24.27101 24567 ft 444 kts 135°
2026-05-08 12:02 37.55464 24.29881 24096 ft 436 kts 144°
2026-05-08 12:02 37.53069 24.32139 23604 ft 426 kts 154°
2026-05-08 12:03 37.50595 24.34068 23155 ft 422 kts 154°
2026-05-08 12:03 37.48095 24.35986 22681 ft 419 kts 154°
2026-05-08 12:03 37.45617 24.37888 22209 ft 416 kts 154°
2026-05-08 12:03 37.43155 24.39788 21760 ft 413 kts 153°
2026-05-08 12:04 37.40716 24.41682 21300 ft 411 kts 153°
2026-05-08 12:04 37.38296 24.43569 20840 ft 408 kts 153°
2026-05-08 12:04 37.35897 24.45445 20373 ft 405 kts 153°
2026-05-08 12:04 37.33517 24.47306 19937 ft 401 kts 153°
2026-05-08 12:05 37.31154 24.49154 19488 ft 399 kts 152°
2026-05-08 12:05 37.28806 24.50989 19034 ft 396 kts 152°
2026-05-08 12:05 37.26476 24.52809 18591 ft 393 kts 152°
2026-05-08 12:05 37.24161 24.54616 18152 ft 391 kts 152°
2026-05-08 12:06 37.21859 24.56411 17707 ft 388 kts 152°
2026-05-08 12:06 37.19576 24.58191 17268 ft 385 kts 152°
2026-05-08 12:06 37.17307 24.59961 16830 ft 383 kts 152°
2026-05-08 12:06 37.15049 24.61717 16394 ft 380 kts 152°
2026-05-08 12:07 37.12810 24.63455 15961 ft 377 kts 152°
2026-05-08 12:07 37.10586 24.65180 15531 ft 374 kts 152°
2026-05-08 12:07 37.08384 24.66891 15105 ft 371 kts 152°
2026-05-08 12:07 37.06200 24.68585 14673 ft 368 kts 153°
2026-05-08 12:08 37.04028 24.70268 14234 ft 366 kts 153°
2026-05-08 12:08 37.01873 24.71938 13805 ft 363 kts 153°
2026-05-08 12:08 37.00456 24.73037 13530 ft 361 kts 153°
2026-05-08 12:08 36.98325 24.74687 13106 ft 359 kts 153°
2026-05-08 12:09 36.96215 24.76320 12695 ft 355 kts 153°
2026-05-08 12:09 36.94132 24.77932 12284 ft 350 kts 153°
2026-05-08 12:09 36.92045 24.79543 11878 ft 346 kts 152°
2026-05-08 12:09 36.90007 24.81122 11501 ft 342 kts 152°
2026-05-08 12:10 36.88023 24.82664 11101 ft 339 kts 152°
2026-05-08 12:10 36.86002 24.84235 10689 ft 337 kts 151°
2026-05-08 12:10 36.84062 24.85743 10523 ft 328 kts 151°
2026-05-08 12:10 36.82160 24.87223 10364 ft 318 kts 151°
2026-05-08 12:11 36.80316 24.88678 10221 ft 310 kts 150°
2026-05-08 12:11 36.78515 24.90073 10069 ft 301 kts 151°
2026-05-08 12:11 36.76742 24.91431 9739 ft 298 kts 151°
2026-05-08 12:11 36.74982 24.92783 9435 ft 296 kts 150°
2026-05-08 12:12 36.73237 24.94128 9132 ft 294 kts 150°
2026-05-08 12:12 36.71534 24.95513 8815 ft 292 kts 141°
2026-05-08 12:12 36.70332 24.97534 8525 ft 293 kts 114°
2026-05-08 12:12 36.69833 24.99984 8257 ft 292 kts 99°
2026-05-08 12:13 36.69577 25.02479 7949 ft 290 kts 97°
2026-05-08 12:13 36.69344 25.04973 7638 ft 289 kts 97°
2026-05-08 12:13 36.69107 25.07450 7329 ft 287 kts 98°
2026-05-08 12:13 36.68858 25.09912 7025 ft 286 kts 98°
2026-05-08 12:14 36.68602 25.12367 6716 ft 285 kts 98°
2026-05-08 12:14 36.68340 25.14810 6408 ft 284 kts 98°
2026-05-08 12:14 36.68080 25.17241 6111 ft 282 kts 98°
2026-05-08 12:14 36.67736 25.19629 5877 ft 278 kts 105°
2026-05-08 12:15 36.67230 25.21946 5658 ft 276 kts 107°
2026-05-08 12:15 36.66699 25.24251 5410 ft 276 kts 107°
2026-05-08 12:15 36.66187 25.26538 5186 ft 273 kts 106°
2026-05-08 12:15 36.65693 25.28801 4972 ft 269 kts 106°
2026-05-08 12:16 36.65209 25.31040 4658 ft 269 kts 105°
2026-05-08 12:16 36.64726 25.33277 4398 ft 266 kts 105°
2026-05-08 12:16 36.64134 25.35444 4142 ft 263 kts 122°
2026-05-08 12:16 36.62835 25.36962 3942 ft 255 kts 151°
2026-05-08 12:17 36.61259 25.37916 3760 ft 249 kts 159°
2026-05-08 12:17 36.59642 25.38658 3550 ft 246 kts 161°
2026-05-08 12:17 36.58064 25.39381 3454 ft 235 kts 160°
2026-05-08 12:17 36.56582 25.40079 3324 ft 222 kts 160°
2026-05-08 12:18 36.55157 25.40751 3077 ft 216 kts 160°
2026-05-08 12:18 36.53767 25.41405 2790 ft 211 kts 160°
2026-05-08 12:18 36.52413 25.42040 2508 ft 205 kts 160°
2026-05-08 12:18 36.51095 25.42659 2233 ft 199 kts 159°
2026-05-08 12:19 36.49836 25.43252 1978 ft 187 kts 159°
2026-05-08 12:19 36.48665 25.43802 1742 ft 173 kts 159°
2026-05-08 12:19 36.47603 25.44301 1551 ft 157 kts 159°
2026-05-08 12:19 36.46621 25.44764 1319 ft 144 kts 158°
2026-05-08 12:20 36.45687 25.45202 1148 ft 145 kts 158°
2026-05-08 12:20 36.44725 25.45663 929 ft 152 kts 158°
2026-05-08 12:20 36.43737 25.46135 706 ft 151 kts 159°
2026-05-08 12:20 36.42753 25.46582 507 ft 149 kts 160°
2026-05-08 12:21 36.41783 25.47036 313 ft 148 kts 158°
2026-05-08 12:21 36.40826 25.47492 135 ft 147 kts 159°
2026-05-08 12:21 36.39929 25.47911 85 ft 116 kts 159°
2026-05-08 12:21 36.39381 25.48171 67 ft 52 kts 159°
2026-05-08 12:22 36.39112 25.48297 59 ft 28 kts 159°
2026-05-08 12:22 36.39006 25.48229 55 ft 20 kts 259°
2026-05-08 12:22 36.39108 25.48130 60 ft 20 kts 338°
2026-05-08 12:22 36.39234 25.48068 61 ft 19 kts 338°
2026-05-08 12:23 36.39358 25.48012 69 ft 19 kts 339°
2026-05-08 12:23 36.39477 25.47956 66 ft 18 kts 339°
2026-05-08 12:23 36.39591 25.47900 77 ft 17 kts 338°
2026-05-08 12:23 36.39701 25.47845 83 ft 17 kts 338°
2026-05-08 12:24 36.39809 25.47799 87 ft 16 kts 339°
2026-05-08 12:24 36.39912 25.47750 87 ft 15 kts 339°
2026-05-08 12:24 36.40010 25.47704 90 ft 15 kts 339°
2026-05-08 12:24 36.40105 25.47659 90 ft 14 kts 339°
2026-05-08 12:25 36.40195 25.47616 91 ft 14 kts 339°
2026-05-08 12:25 36.40272 25.47559 89 ft 13 kts 291°
2026-05-08 12:25 36.40281 25.47477 92 ft 0 kts 309°
2026-05-08 12:25 36.40278 25.47482 88 ft 0 kts 309°
2026-05-08 12:26 36.40280 25.47464 88 ft 5 kts 263°
2026-05-08 12:26 36.40268 25.47424 91 ft 0 kts 249°